Weather History for KAQO - February, 2013

Change the Weather History Date:

Tuesday, February 12, 2013

  Actual Average (KBMQ) Record (KBMQ)
Temperature  
Mean Temperature 56 °F -  
Max Temperature 71 °F 60 °F 72 °F (2009)
Min Temperature 42 °F 40 °F 25 °F (2011)
Degree Days  
Heating Degree Days 8    
Growing Degree Days 6 (Base 50)    
Moisture  
Dew Point 41 °F    
Average Humidity 68    
Maximum Humidity 100    
Minimum Humidity 16    
Precipitation  
Precipitation 0.00 in - - ()
Sea Level Pressure  
Sea Level Pressure 29.96 in    
Wind  
Wind Speed 6 mph (NW)    
Max Wind Speed 24 mph    
Max Gust Speed 32 mph    
Visibility 8 miles    
Events      
Averages and records for this station are not official NWS values.
T = Trace of Precipitation, MM = Missing Value Source: NWS Daily Summary

Daily Weather History Graph

Daily Weather History Graph

Search for Another Location

Airport or City:

Trip Planner

Search our weather history database for the weather conditions in past years. The results will help you decide how hot, cold, wet, or windy it might be!

Date:

Astronomy

Feb. 12, 2013 Rise Set
Actual Time 7:17 AM CST 6:20 PM CST
Civil Twilight 6:53 AM CST 6:45 PM CST
Nautical Twilight 6:24 AM CST 7:13 PM CST
Astronomical Twilight 5:56 AM CST 7:41 PM CST
Moon 8:30 AM CST (2/12) 9:05 PM CST (2/12)
Length of Visible Light 11h 52m
Length of Day
11h 02m
Waxing Crescent, 7% of the Moon is Illuminated
Feb 12
Waxing Crescent
Feb 17
First Quarter
Feb 25
Full
Mar 4
Last Quarter
Mar 11
New

Hourly Weather History & Observations

Time (CST) Temp. Windchill Dew Point Humidity Pressure Visibility Wind Dir Wind Speed Gust Speed Precip Events Conditions
12:15 AM 48.2 °F - 44.6 °F 87% 30.03 in 10.0 mi East 3.5 mph - N/A   Overcast
12:35 AM 48.2 °F - 44.6 °F 87% 30.01 in 10.0 mi East 5.8 mph - N/A   Overcast
12:55 AM 48.2 °F - 46.4 °F 93% 30.00 in 10.0 mi East 3.5 mph - N/A   Overcast
1:15 AM 48.2 °F - 46.4 °F 93% 30.01 in 6.0 mi Calm Calm - N/A   Overcast
1:35 AM 48.2 °F - 46.4 °F 93% 30.00 in 2.0 mi Calm Calm - N/A   Overcast
1:55 AM 48.2 °F - 46.4 °F 93% 29.98 in 2.0 mi Calm Calm - N/A   Overcast
2:15 AM 48.2 °F - 46.4 °F 93% 29.98 in 2.0 mi Calm Calm - N/A   Overcast
2:35 AM 48.2 °F - 46.4 °F 93% 29.96 in 1.8 mi ESE 4.6 mph - N/A   Overcast
2:55 AM 48.2 °F - 46.4 °F 93% 29.94 in 2.0 mi ESE 4.6 mph - N/A   Overcast
3:15 AM 48.2 °F - 46.4 °F 93% 29.93 in 2.0 mi ESE 3.5 mph - N/A   Overcast
3:35 AM 48.2 °F - 46.4 °F 93% 29.93 in 1.8 mi ESE 6.9 mph - N/A   Overcast
3:55 AM 48.2 °F - 48.2 °F 100% 29.91 in 1.5 mi ESE 6.9 mph - N/A   Overcast
4:15 AM 48.2 °F - 48.2 °F 100% 29.93 in 1.2 mi Calm Calm - N/A   Overcast
4:35 AM 48.2 °F - 48.2 °F 100% 29.92 in 1.2 mi Calm Calm - N/A   Overcast
4:55 AM 48.2 °F - 48.2 °F 100% 29.91 in 1.2 mi Calm Calm - N/A   Overcast
5:15 AM 48.2 °F - 48.2 °F 100% 29.91 in 1.2 mi Calm Calm - N/A   Overcast
5:35 AM 48.2 °F - 48.2 °F 100% 29.89 in 1.2 mi Calm Calm - N/A   Overcast
5:55 AM 48.2 °F - 48.2 °F 100% 29.91 in 1.2 mi Calm Calm - N/A   Overcast
6:15 AM 48.2 °F - 48.2 °F 100% 29.91 in 1.5 mi Calm Calm - N/A   Overcast
6:35 AM 48.2 °F - 48.2 °F 100% 29.92 in 1.5 mi Calm Calm - N/A   Overcast
6:55 AM 48.2 °F - 48.2 °F 100% 29.92 in 1.2 mi Calm Calm - N/A   Overcast
7:15 AM 48.2 °F - 48.2 °F 100% 29.93 in 2.0 mi Calm Calm - N/A   Overcast
7:35 AM 48.2 °F - 48.2 °F 100% 29.93 in 1.2 mi Calm Calm - N/A   Overcast
7:55 AM 48.2 °F - 48.2 °F 100% 29.94 in 2.5 mi Calm Calm - N/A   Overcast
8:15 AM 48.2 °F - 48.2 °F 100% 29.95 in 7.0 mi Calm Calm - N/A   Overcast
8:35 AM 50.0 °F - 48.2 °F 94% 29.95 in 9.0 mi Calm Calm - N/A   Overcast
8:55 AM 50.0 °F - 50.0 °F 100% 29.95 in 10.0 mi Calm Calm - N/A   Overcast
9:15 AM 51.8 °F - 50.0 °F 94% 29.97 in 10.0 mi Calm Calm - N/A   Overcast
9:35 AM 51.8 °F - 50.0 °F 94% 29.96 in 10.0 mi Calm Calm - N/A   Overcast
9:55 AM 53.6 °F - 51.8 °F 94% 29.96 in 10.0 mi Calm Calm - N/A   Overcast
10:15 AM 53.6 °F - 51.8 °F 94% 29.97 in 10.0 mi Calm Calm - N/A   Overcast
10:35 AM 53.6 °F - 51.8 °F 94% 29.98 in 10.0 mi Calm Calm - N/A   Overcast
10:55 AM 55.4 °F - 51.8 °F 88% 29.99 in 10.0 mi Calm Calm - N/A   Overcast
11:15 AM 55.4 °F - 51.8 °F 88% 29.98 in 10.0 mi Calm Calm - N/A   Overcast
11:35 AM 57.2 °F - 51.8 °F 82% 29.97 in 10.0 mi WNW 3.5 mph - N/A   Overcast
11:55 AM 60.8 °F - 51.8 °F 72% 29.95 in 10.0 mi NW 5.8 mph - N/A   Mostly Cloudy
12:15 PM 64.4 °F - 51.8 °F 64% 29.94 in 10.0 mi NW 11.5 mph 16.1 mph N/A   Scattered Clouds
12:55 PM 66.2 °F - 42.8 °F 43% 29.91 in 10.0 mi NNW 17.3 mph 24.2 mph N/A   Partly Cloudy
1:15 PM 69.8 °F - 37.4 °F 31% 29.90 in 10.0 mi WNW 13.8 mph 26.5 mph N/A   Clear
1:35 PM 69.8 °F - 39.2 °F 33% 29.89 in 10.0 mi NW 17.3 mph 21.9 mph N/A   Clear
1:55 PM 69.8 °F - 37.4 °F 31% 29.88 in 10.0 mi NW 13.8 mph 25.3 mph N/A   Clear
2:15 PM 69.8 °F - 35.6 °F 28% 29.87 in 10.0 mi NW 16.1 mph 21.9 mph N/A   Clear
2:35 PM 71.6 °F - 33.8 °F 25% 29.86 in 10.0 mi West 17.3 mph 27.6 mph N/A   Clear
2:55 PM 69.8 °F - 32.0 °F 25% 29.87 in 10.0 mi NW 17.3 mph 31.1 mph N/A   Clear
3:15 PM 71.6 °F - 32.0 °F 23% 29.86 in 10.0 mi WNW 10.4 mph 24.2 mph N/A   Clear
3:35 PM 71.6 °F - 26.6 °F 19% 29.86 in 10.0 mi WNW 16.1 mph 31.1 mph N/A   Clear
3:55 PM 71.6 °F - 28.4 °F 20% 29.86 in 10.0 mi WNW 18.4 mph 23.0 mph N/A   Clear
4:15 PM 69.8 °F - 24.8 °F 18% 29.87 in 10.0 mi West 19.6 mph 28.8 mph N/A   Clear
4:35 PM 69.8 °F - 23.0 °F 17% 29.88 in 10.0 mi West 24.2 mph 31.1 mph N/A   Clear
4:55 PM 69.8 °F - 21.2 °F 16% 29.88 in 10.0 mi WNW 19.6 mph 26.5 mph N/A   Clear
5:15 PM 66.2 °F - 19.4 °F 17% 29.90 in 10.0 mi West 19.6 mph 32.2 mph N/A   Clear
5:35 PM 66.2 °F - 19.4 °F 17% 29.91 in 10.0 mi NW 20.7 mph 26.5 mph N/A   Clear
5:55 PM 64.4 °F - 21.2 °F 19% 29.93 in 10.0 mi WNW 15.0 mph 21.9 mph N/A   Clear
6:15 PM 62.6 °F - 23.0 °F 22% 29.93 in 10.0 mi WNW 15.0 mph 25.3 mph N/A   Clear
6:35 PM 62.6 °F - 26.6 °F 26% 29.95 in 10.0 mi NW 13.8 mph 18.4 mph N/A   Clear
6:55 PM 62.6 °F - 26.6 °F 26% 29.96 in 10.0 mi NW 11.5 mph 19.6 mph N/A   Clear
7:15 PM 60.8 °F - 28.4 °F 29% 29.96 in 10.0 mi NW 11.5 mph 17.3 mph N/A   Clear
7:55 PM 57.2 °F - 37.4 °F 48% 30.01 in 10.0 mi North 19.6 mph 27.6 mph N/A   Clear
8:15 PM 55.4 °F - 39.2 °F 54% 30.01 in 10.0 mi NNW 17.3 mph 21.9 mph N/A   Clear
8:35 PM 53.6 °F - 39.2 °F 58% 30.03 in 10.0 mi NNW 17.3 mph 23.0 mph N/A   Clear
8:55 PM 51.8 °F - 39.2 °F 62% 30.04 in 10.0 mi NNW 19.6 mph 28.8 mph N/A   Clear
9:15 PM 50.0 °F - 37.4 °F 62% 30.05 in 10.0 mi NNW 17.3 mph 24.2 mph N/A   Clear
9:35 PM 48.2 °F - 35.6 °F 62% 30.07 in 10.0 mi NNW 15.0 mph 21.9 mph N/A   Clear
9:55 PM 46.4 °F 39.0 °F 35.6 °F 66% 30.08 in 10.0 mi NNW 19.6 mph 26.5 mph N/A   Clear
10:15 PM 46.4 °F 40.1 °F 33.8 °F 62% 30.09 in 10.0 mi NNW 15.0 mph 27.6 mph N/A   Clear
10:35 PM 46.4 °F 40.7 °F 33.8 °F 62% 30.10 in 10.0 mi NNW 12.7 mph 24.2 mph N/A   Clear
10:55 PM 44.6 °F 36.9 °F 33.8 °F 66% 30.10 in 10.0 mi NNW 18.4 mph 27.6 mph N/A   Clear
11:15 PM 44.6 °F 38.4 °F 33.8 °F 66% 30.11 in 10.0 mi NNW 12.7 mph 24.2 mph N/A   Clear
11:35 PM 42.8 °F 35.4 °F 32.0 °F 66% 30.11 in 10.0 mi NNW 15.0 mph 29.9 mph N/A   Clear
11:55 PM 42.8 °F 36.2 °F 32.0 °F 66% 30.12 in 10.0 mi NNW 12.7 mph 20.7 mph N/A   Clear